Retour au catalogue

STARLINK-4346

ActifCommunicationsSSO
NORAD 53073·PAYLOAD·🇺🇸 United States

Lancé Jul 11, 2022 depuis Vandenberg Space Force Base

Loading…

Prochains Passages (prochaines 24 heures)

TLE

FraisSource: CelesTrak SupGP

Époque: Sep 15, 2026, 01:37 UTC

1 53073C 22077AG  26258.06784722 -.00018000  00000+0 -72700-3 0  2582
2 53073  97.6335  89.2028 0005065 287.5574 169.0653 15.24832038    13

Suivez STARLINK-4346 en temps réel avec AllMySat

Download on the App Store